NW Arkansas Airport, AR

10:58 PM CST on January 20, 2018 (GMT -0600)
Northwest Arkansas Regional

Weather History for KXNA - January, 2013

Change the Weather History Date:

Monday, January 7, 2013

  Actual Average (KVBT) Record (KVBT)
Temperature  
Mean Temperature 36 °F -  
Max Temperature 50 °F 43 °F 71 °F (1965)
Min Temperature 21 °F 20 °F -4 °F (1968)
Degree Days  
Heating Degree Days 30    
Moisture  
Dew Point 23 °F    
Average Humidity 69    
Maximum Humidity 92    
Minimum Humidity 38    
Precipitation  
Precipitation 0.00 in - - ()
Sea Level Pressure  
Sea Level Pressure 30.26 in    
Wind  
Wind Speed 4 mph (South)    
Max Wind Speed 14 mph    
Max Gust Speed -    
Visibility 10 miles    
Events      
Averages and records for this station are not official NWS values.
T = Trace of Precipitation, MM = Missing Value Source: NWS Daily Summary

Daily Weather History Graph

Daily Weather History Graph

Search for Another Location

Airport or City:

Trip Planner

Search our weather history database for the weather conditions in past years. The results will help you decide how hot, cold, wet, or windy it might be!

Date:

Astronomy

Jan. 07, 2013 Rise Set
Actual Time 7:29 AM CST 5:18 PM CST
Civil Twilight 7:00 AM CST 5:46 PM CST
Nautical Twilight 6:28 AM CST 6:18 PM CST
Astronomical Twilight 5:57 AM CST 6:50 PM CST
Moon 2:55 AM CST (1/7) 1:28 PM CST (1/7)
Length of Visible Light 10h 46m
Length of Day
9h 49m
Waning Crescent, 22% of the Moon is Illuminated
Jan 7
Waning Crescent
Jan 11
New
Jan 18
First Quarter
Jan 26
Full
Feb 3
Last Quarter

Hourly Weather History & Observations

Time (CST) Temp. Windchill Dew Point Humidity Pressure Visibility Wind Dir Wind Speed Gust Speed Precip Events Conditions
12:53 AM 24.1 °F - 19.9 °F 84% 30.35 in 10.0 mi Calm Calm - N/A   Clear
1:53 AM 23.0 °F - 19.0 °F 85% 30.35 in 10.0 mi Calm Calm - N/A   Clear
2:53 AM 25.0 °F 20.7 °F 19.9 °F 81% 30.33 in 10.0 mi SE 3.5 mph - N/A   Clear
3:53 AM 23.0 °F - 19.0 °F 85% 30.32 in 10.0 mi Calm Calm - N/A   Clear
4:53 AM 21.0 °F - 19.0 °F 92% 30.32 in 10.0 mi Calm Calm - N/A   Clear
5:53 AM 21.9 °F - 18.0 °F 85% 30.32 in 10.0 mi Calm Calm - N/A   Clear
6:53 AM 24.1 °F - 19.0 °F 81% 30.33 in 10.0 mi Calm Calm - N/A   Clear
7:53 AM 25.0 °F 19.3 °F 19.9 °F 81% 30.35 in 10.0 mi SSE 4.6 mph - N/A   Clear
8:53 AM 30.0 °F 25.2 °F 26.1 °F 85% 30.35 in 10.0 mi South 4.6 mph - N/A   Clear
9:53 AM 37.0 °F 31.6 °F 28.0 °F 70% 30.34 in 10.0 mi South 6.9 mph - N/A   Clear
10:53 AM 43.0 °F 36.8 °F 28.0 °F 56% 30.33 in 10.0 mi South 11.5 mph - N/A   Clear
11:53 AM 46.9 °F - 26.1 °F 44% 30.29 in 10.0 mi South 13.8 mph - N/A   Clear
1:53 PM 48.9 °F - 25.0 °F 39% 30.22 in 10.0 mi SSW 12.7 mph - N/A   Clear
2:53 PM 50.0 °F - 25.0 °F 38% 30.21 in 10.0 mi SSW 12.7 mph - N/A   Clear
3:53 PM 48.0 °F - 26.1 °F 42% 30.20 in 10.0 mi South 8.1 mph - N/A   Clear
5:53 PM 39.9 °F 35.1 °F 25.0 °F 55% 30.19 in 10.0 mi South 6.9 mph - N/A   Clear
6:53 PM 37.0 °F 30.4 °F 25.0 °F 62% 30.19 in 10.0 mi South 9.2 mph - N/A   Clear
7:53 PM 36.0 °F 31.1 °F 25.0 °F 64% 30.19 in 10.0 mi South 5.8 mph - N/A   Clear
8:53 PM 35.1 °F 32.2 °F 25.0 °F 67% 30.17 in 10.0 mi South 3.5 mph - N/A   Clear
9:53 PM 35.1 °F 31.0 °F 25.0 °F 67% 30.15 in 10.0 mi South 4.6 mph - N/A   Clear
10:53 PM 33.1 °F 30.0 °F 24.1 °F 70% 30.14 in 10.0 mi SSE 3.5 mph - N/A   Clear
11:53 PM 30.9 °F - 24.1 °F 76% 30.13 in 10.0 mi Calm Calm - N/A   Clear